Location: DARK SKY Beskydy - Park tmavé oblohy, www.darkskybeskydy.cz
(49.4926°N, 18.5016°E)
Time: 22:15:13
(UTC+02:00)

Vanguard 3 - Pass Details

Date: 17 July 2024
Orbit: 508 x 3215 km, 33.4° (Epoch: 17 June)

Event Time Altitude Azimuth Distance (km) Brightness Sun altitude
Rises 05:12:18 0° 259° (W) 6,733 11.2 1.0°
Reaches altitude 10° 05:16:48 10° 254° (WSW) 5,920 10.9 1.7°
Maximum altitude 05:34:19 45° 190° (S) 3,900 10.4 4.1°
Drops below altitude 10° 05:50:04 10° 126° (SE) 5,352 11.8 6.4°
Sets 05:53:54 0° 120° (ESE) 6,065 12.2 7.0°
